Location: Newark
(40.9833°N, 0.0333°W)
Time: 20:36:48
(UTC+00:00)

Vanguard 2 Rocket - Pass Details

Date: 31 October 2020
Orbit: 553 x 3326 km, 32.9° (Epoch: 29 November)

Event Time Altitude Azimuth Distance (km) Brightness Sun altitude
Rises 22:06:11 0° 259° (WSW) 3,093 - -56.1°
Reaches altitude 10° 22:08:57 10° 239° (WSW) 2,420 - -56.4°
Maximum altitude 22:12:46 18° 196° (SSW) 2,268 - -56.9°
Drops below altitude 10° 22:17:53 10° 156° (SSE) 3,401 - -57.6°
Sets 22:22:52 0° 141° (SE) 4,958 - -58.2°
